Location: ??
(35.5090°N, 139.6783°E)
Time: 19:06:17
(UTC+00:00)

Cosmos 1441 Rocket - Pass Details

Date: 08 November 2025
Orbit: 424 x 448 km, 81.1° (Epoch: 08 December)

Event Time Altitude Azimuth Distance (km) Brightness Sun altitude
Rises 08:31:23 0° 3° (N) 2,391 6.4 -10.9°
Reaches altitude 10° 08:33:36 10° 15° (NNE) 1,522 5.3 -11.3°
Maximum altitude 08:36:32 29° 78° (ENE) 814 3.6 -11.9°
Drops below altitude 10° 08:39:28 10° 140° (SE) 1,519 5.3 -12.5°
Sets 08:41:41 0° 152° (SSE) 2,385 6.4 -12.9°
